Location: Bagnolo San Vito
(45.0833°N, 10.8833°E)
Time: 00:17:18
(UTC+00:00)

CSL-04 Debris - Pass Details

Date: 03 March 2021
Orbit: 826 x 848 km, 98.9° (Epoch: 17 April)

Event Time Altitude Azimuth Distance (km) Brightness Sun altitude
Rises 18:22:20 0° 166° (SSE) 3,369 7.1 -14.1°
Reaches altitude 10° 18:24:41 10° 167° (SSE) 2,442 6.4 -14.6°
Maximum altitude 18:30:06 83° 255° (WSW) 852 4.2 -15.5°
Drops below altitude 10° 18:35:37 10° 344° (NNW) 2,474 6.9 -16.5°
Sets 18:38:00 0° 346° (NNW) 3,416 7.7 -16.9°
